{"data":{"norad_id":69214,"intl_designator":"2026-115D","name":"STARLINK-37620","alt_names":[],"object_type":"PAYLOAD","status":"ACTIVE","operator":null,"country":"US","launch_date":"2026-05-26","launch_site_code":"AFWTR","launch_vehicle":null,"mission":null,"orbit_class":"UNKNOWN","rcs_meters":null,"size_class":null,"mass_kg":null,"dimensions":null,"purposes":["comms"],"wikipedia_slug":null,"has_3d_model":false,"image_url":null,"decayed_at":null,"tle_current":{"epoch":"2026-09-20T02:04:33.155904Z","epoch_age_seconds":62760,"freshness":"FRESH","line1":"1 69214U 26115D   26263.08649486  .00013928  00000+0  43281-3 0  9994","line2":"2 69214  97.2818 279.1304 0001955  90.9089 269.2377 15.33454026 19223","mean_motion":15.33454026,"eccentricity":0.0001955,"inclination_deg":97.2818,"raan_deg":279.1304,"arg_perigee_deg":90.9089,"mean_anomaly_deg":269.2377,"bstar":0.00043281,"rev_number":1922,"period_min":93.905651919427,"perigee_km":464.17838536021,"apogee_km":466.85425380817,"semimajor_km":6843.6533195842,"source":"CELESTRAK","updated_at":"2026-09-20T09:00:44.102263Z"}}}